Weather History for KPQL - November, 2012

Change the Weather History Date:

Friday, November 2, 2012

  Actual Average Record
Temperature  
Mean Temperature 63 °F -  
Max Temperature 80 °F 75 °F 86 °F (1971)
Min Temperature 46 °F 56 °F 30 °F (2014)
Degree Days  
Heating Degree Days 2    
Growing Degree Days 13 (Base 50)    
Moisture  
Dew Point 57 °F    
Average Humidity 89    
Maximum Humidity 100    
Minimum Humidity 58    
Precipitation  
Precipitation 0.00 in - - ()
Sea Level Pressure  
Sea Level Pressure 30.06 in    
Wind  
Wind Speed 1 mph (SW)    
Max Wind Speed 10 mph    
Max Gust Speed -    
Visibility 5 miles    
Events      
Averages and records for this station are not official NWS values.
T = Trace of Precipitation, MM = Missing Value Source: NWS Daily Summary

Daily Weather History Graph

Daily Weather History Graph

Search for Another Location

Airport or City:

Trip Planner

Search our weather history database for the weather conditions in past years. The results will help you decide how hot, cold, wet, or windy it might be!

Date:

Astronomy

Nov. 02, 2012 Rise Set
Actual Time 7:09 AM CDT 6:05 PM CDT
Civil Twilight 6:44 AM CDT 6:30 PM CDT
Nautical Twilight 6:16 AM CDT 6:58 PM CDT
Astronomical Twilight 5:48 AM CDT 7:26 PM CDT
Moon 9:00 PM CDT (11/2) 10:21 AM CDT (11/2)
Length of Visible Light 11h 45m
Length of Day
10h 55m
Waning Gibbous, 87% of the Moon is Illuminated
Nov 2
Waning Gibbous
Nov 6
Last Quarter
Nov 13
New
Nov 20
First Quarter
Nov 28
Full

Hourly Weather History & Observations

Time (CDT) Temp. Heat Index Dew Point Humidity Pressure Visibility Wind Dir Wind Speed Gust Speed Precip Events Conditions
12:03 AM 48.2 °F - 46.4 °F 93% 30.04 in 1.0 mi Calm Calm - N/A   Clear
12:10 AM 48.2 °F - 46.4 °F 93% 30.04 in 0.8 mi Calm Calm - N/A   Clear
12:18 AM 48.2 °F - 46.4 °F 93% 30.04 in 1.2 mi Calm Calm - N/A   Clear
12:35 AM 46.4 °F - 46.4 °F 100% 30.04 in 3.0 mi Calm Calm - N/A   Clear
12:53 AM 48.0 °F - 46.0 °F 93% 30.04 in 4.0 mi Calm Calm - N/A   Clear
1:53 AM 48.0 °F - 46.0 °F 93% 30.05 in 5.0 mi Calm Calm - N/A   Clear
2:13 AM 48.2 °F - 46.4 °F 93% 30.04 in 2.0 mi Calm Calm - N/A   Clear
2:23 AM 48.2 °F - 46.4 °F 93% 30.04 in 3.0 mi Calm Calm - N/A   Clear
2:31 AM 46.4 °F - 46.4 °F 100% 30.04 in 2.0 mi Calm Calm - N/A   Clear
2:41 AM 48.2 °F - 46.4 °F 93% 30.04 in 3.0 mi Calm Calm - N/A   Clear
2:44 AM 48.2 °F - 46.4 °F 93% 30.04 in 1.8 mi Calm Calm - N/A   Clear
2:53 AM 48.0 °F - 46.0 °F 93% 30.04 in 3.0 mi Calm Calm - N/A   Clear
3:53 AM 48.0 °F - 46.0 °F 93% 30.04 in 5.0 mi Calm Calm - N/A   Clear
4:53 AM 48.0 °F - 46.0 °F 93% 30.04 in 7.0 mi Calm Calm - N/A   Clear
5:53 AM 46.9 °F - 46.0 °F 97% 30.04 in 8.0 mi Calm Calm - N/A   Clear
6:46 AM 48.2 °F - 46.4 °F 93% 30.04 in 8.0 mi Calm Calm - N/A   Partly Cloudy
6:53 AM 48.0 °F - 46.9 °F 96% 30.05 in 9.0 mi Calm Calm - N/A   Partly Cloudy
7:53 AM 52.0 °F - 50.0 °F 93% 30.07 in 7.0 mi Calm Calm - N/A   Clear
8:05 AM 53.6 °F - 51.8 °F 94% 30.07 in 6.0 mi Calm Calm - N/A   Scattered Clouds
8:19 AM 55.4 °F - 51.8 °F 88% 30.07 in 4.0 mi Calm Calm - N/A   Mostly Cloudy
8:53 AM 60.1 °F - 57.0 °F 90% 30.08 in 5.0 mi Calm Calm - N/A   Mostly Cloudy
9:04 AM 62.6 °F - 60.8 °F 94% 30.08 in 1.8 mi Calm Calm - N/A   Overcast
9:09 AM 62.6 °F - 60.8 °F 94% 30.08 in 0.5 mi WSW 3.5 mph - N/A   Overcast
9:19 AM 64.4 °F - 62.6 °F 94% 30.09 in 0.2 mi WSW 3.5 mph - N/A   Unknown
9:36 AM 66.2 °F - 64.4 °F 94% 30.09 in 1.0 mi Calm Calm - N/A   Unknown
9:45 AM 66.2 °F - 64.4 °F 94% 30.09 in 3.0 mi WSW 4.6 mph - N/A   Overcast
9:53 AM 69.1 °F - 66.0 °F 90% 30.10 in 5.0 mi WSW 3.5 mph - N/A   Overcast
10:09 AM 71.6 °F - 64.4 °F 78% 30.09 in 8.0 mi Variable 4.6 mph - N/A   Scattered Clouds
10:53 AM 72.0 °F - 64.9 °F 78% 30.10 in 9.0 mi SW 9.2 mph - N/A   Scattered Clouds
11:06 AM 69.8 °F - 64.4 °F 83% 30.09 in 8.0 mi SW 10.4 mph - N/A   Mostly Cloudy
11:15 AM 69.8 °F - 64.4 °F 83% 30.09 in 8.0 mi SW 9.2 mph - N/A   Mostly Cloudy
11:53 AM 72.0 °F - 64.0 °F 76% 30.09 in 10.0 mi WSW 5.8 mph - N/A   Scattered Clouds
12:53 PM 75.0 °F - 64.9 °F 71% 30.06 in 10.0 mi Variable 4.6 mph - N/A   Clear
1:53 PM 78.1 °F - 64.9 °F 64% 30.03 in 10.0 mi SSW 6.9 mph - N/A   Clear
2:53 PM 80.1 °F 81.7 °F 64.0 °F 58% 30.02 in 10.0 mi West 8.1 mph - N/A   Clear
3:53 PM 78.1 °F - 64.9 °F 64% 30.01 in 10.0 mi SSW 5.8 mph - N/A   Clear
4:53 PM 75.0 °F - 66.0 °F 73% 30.01 in 10.0 mi SSW 3.5 mph - N/A   Clear
5:53 PM 72.0 °F - 64.9 °F 78% 30.02 in 10.0 mi Calm Calm - N/A   Clear
6:53 PM 69.1 °F - 64.0 °F 84% 30.03 in 10.0 mi Calm Calm - N/A   Clear
7:53 PM 68.0 °F - 64.9 °F 90% 30.04 in 7.0 mi SW 3.5 mph - N/A   Clear
8:53 PM 66.9 °F - 64.9 °F 93% 30.05 in 6.0 mi Calm Calm - N/A   Clear
9:14 PM 64.4 °F - 64.4 °F 100% 30.05 in 2.0 mi Calm Calm - N/A   Clear
9:26 PM 62.6 °F - 62.6 °F 100% 30.05 in 4.0 mi Calm Calm - N/A   Clear
9:39 PM 62.6 °F - 62.6 °F 100% 30.06 in 1.8 mi Calm Calm - N/A   Clear
9:53 PM 64.0 °F - 63.0 °F 96% 30.06 in 3.0 mi Calm Calm - N/A   Clear
10:53 PM 66.9 °F - 64.9 °F 93% 30.06 in 9.0 mi SW 3.5 mph - N/A   Clear
11:53 PM 66.0 °F - 64.0 °F 93% 30.07 in 9.0 mi Calm Calm - N/A   Clear